• In Österreich
  • Länderverzeichnis
  • Für 7 Tage
  • Wassertemperatur
  • Satellitenkarten
  • Wetterkarte
  • News
  • Widgets
  • user-avatar
    Anmelden

    Stündliche Wetter Bjala

    Heute, 16 August, Donnerstag

    Zeit Temperatur Niederschläge Wind Luftdruck Luftfeuchtigkeit
    00:00 +21°C° 0 mm 4 m/S 749 mmHg 69%
    01:00 +21°C° 0 mm 4 m/S 749 mmHg 68%
    02:00 +21°C° 0 mm 4 m/S 749 mmHg 67%
    03:00 +20°C° 0 mm 4 m/S 749 mmHg 65%
    04:00 +20°C° 0 mm 4 m/S 749 mmHg 64%
    05:00 +20°C° 0 mm 5 m/S 749 mmHg 62%
    06:00 +22°C° 0 mm 5 m/S 749 mmHg 57%
    07:00 +25°C° 0 mm 5 m/S 749 mmHg 52%
    08:00 +27°C° 0 mm 5 m/S 749 mmHg 47%
    09:00 +29°C° 0 mm 5 m/S 749 mmHg 43%
    10:00 +32°C° 0 mm 5 m/S 749 mmHg 38%
    11:00 +34°C° 0 mm 5 m/S 749 mmHg 34%
    12:00 +35°C° 0 mm 5 m/S 749 mmHg 33%
    13:00 +35°C° 0 mm 6 m/S 749 mmHg 31%
    14:00 +36°C° 0 mm 6 m/S 749 mmHg 30%
    15:00 +35°C° 0 mm 6 m/S 748 mmHg 32%
    16:00 +34°C° 0 mm 6 m/S 748 mmHg 33%
    17:00 +34°C° 0 mm 6 m/S 748 mmHg 35%
    18:00 +30°C° 0 mm 5 m/S 748 mmHg 44%
    19:00 +28°C° 0 mm 4 m/S 748 mmHg 53%
    20:00 +26°C° 0 mm 4 m/S 748 mmHg 62%
    21:00 +25°C° 0 mm 3 m/S 748 mmHg 65%
    22:00 +24°C° 0 mm 3 m/S 748 mmHg 67%
    23:00 +24°C° 0 mm 3 m/S 749 mmHg 69%

    Morgen, 17 August, Freitag

    Zeit Temperatur Niederschläge Wind Luftdruck Luftfeuchtigkeit
    00:00 +24°C° 0 mm 3 m/S 748 mmHg 68%
    01:00 +22°C° 0 mm 3 m/S 748 mmHg 67%
    02:00 +22°C° 0 mm 4 m/S 748 mmHg 66%
    03:00 +22°C° 0 mm 4 m/S 748 mmHg 64%
    04:00 +22°C° 0 mm 4 m/S 748 mmHg 63%
    05:00 +21°C° 0 mm 4 m/S 748 mmHg 61%
    06:00 +23°C° 0 mm 4 m/S 748 mmHg 57%
    07:00 +26°C° 0 mm 5 m/S 748 mmHg 53%
    08:00 +27°C° 0 mm 5 m/S 749 mmHg 49%
    09:00 +29°C° 0 mm 5 m/S 749 mmHg 44%
    10:00 +32°C° 0 mm 5 m/S 749 mmHg 40%
    11:00 +34°C° 0 mm 5 m/S 749 mmHg 35%
    12:00 +35°C° 0 mm 5 m/S 749 mmHg 34%
    13:00 +35°C° 0 mm 5 m/S 748 mmHg 32%
    14:00 +36°C° 0 mm 5 m/S 748 mmHg 31%
    15:00 +35°C° 0 mm 5 m/S 748 mmHg 33%
    16:00 +34°C° 0 mm 5 m/S 748 mmHg 35%
    17:00 +34°C° 0 mm 5 m/S 748 mmHg 36%
    18:00 +30°C° 0 mm 5 m/S 748 mmHg 45%
    19:00 +28°C° 0 mm 4 m/S 748 mmHg 54%
    20:00 +26°C° 0 mm 3 m/S 749 mmHg 62%
    21:00 +25°C° 0 mm 3 m/S 749 mmHg 65%
    22:00 +24°C° 0 mm 3 m/S 749 mmHg 68%
    23:00 +24°C° 0 mm 3 m/S 749 mmHg 71%

    übermorgen, 18 August, Samstag

    Zeit Temperatur Niederschläge Wind Luftdruck Luftfeuchtigkeit
    00:00 +24°C° 0 mm 3 m/S 749 mmHg 70%
    01:00 +24°C° 0 mm 3 m/S 749 mmHg 68%
    02:00 +22°C° 0 mm 4 m/S 749 mmHg 66%
    03:00 +22°C° 0 mm 4 m/S 749 mmHg 65%
    04:00 +22°C° 0 mm 5 m/S 749 mmHg 64%
    05:00 +21°C° 0 mm 5 m/S 749 mmHg 63%
    06:00 +23°C° 0 mm 5 m/S 749 mmHg 58%
    07:00 +26°C° 0 mm 5 m/S 749 mmHg 52%
    08:00 +28°C° 0 mm 5 m/S 749 mmHg 47%
    09:00 +30°C° 0 mm 5 m/S 749 mmHg 40%
    10:00 +34°C° 0 mm 5 m/S 750 mmHg 33%
    11:00 +36°C° 0 mm 6 m/S 750 mmHg 26%
    12:00 +36°C° 0 mm 6 m/S 749 mmHg 26%
    13:00 +38°C° 0 mm 6 m/S 749 mmHg 25%
    14:00 +38°C° 0 mm 6 m/S 749 mmHg 25%
    15:00 +36°C° 0 mm 6 m/S 749 mmHg 27%
    16:00 +35°C° 0 mm 7 m/S 749 mmHg 29%
    17:00 +35°C° 0 mm 7 m/S 749 mmHg 31%
    18:00 +32°C° 0 mm 6 m/S 749 mmHg 39%
    19:00 +29°C° 0 mm 5 m/S 749 mmHg 46%
    20:00 +26°C° 0 mm 4 m/S 750 mmHg 54%
    21:00 +25°C° 0 mm 4 m/S 750 mmHg 56%
    22:00 +25°C° 0 mm 4 m/S 750 mmHg 58%
    23:00 +24°C° 0 mm 3 m/S 750 mmHg 60%

    19 August, Sonntag

    Zeit Temperatur Niederschläge Wind Luftdruck Luftfeuchtigkeit
    00:00 +23°C° 0 mm 4 m/S 750 mmHg 59%
    01:00 +22°C° 0 mm 4 m/S 750 mmHg 58%
    02:00 +22°C° 0 mm 4 m/S 750 mmHg 56%
    03:00 +22°C° 0 mm 4 m/S 750 mmHg 57%
    04:00 +22°C° 0 mm 4 m/S 750 mmHg 59%
    05:00 +22°C° 0 mm 4 m/S 750 mmHg 60%
    06:00 +23°C° 0 mm 4 m/S 750 mmHg 57%
    07:00 +26°C° 0 mm 4 m/S 750 mmHg 54%
    08:00 +28°C° 0 mm 4 m/S 750 mmHg 51%
    09:00 +30°C° 0 mm 5 m/S 751 mmHg 43%
    10:00 +33°C° 0 mm 6 m/S 751 mmHg 35%
    11:00 +36°C° 0 mm 6 m/S 751 mmHg 27%
    12:00 +36°C° 0 mm 7 m/S 750 mmHg 26%
    13:00 +36°C° 0 mm 7 m/S 750 mmHg 26%
    14:00 +36°C° 0 mm 7 m/S 750 mmHg 25%
    15:00 +35°C° 0 mm 7 m/S 750 mmHg 27%
    16:00 +34°C° 0 mm 7 m/S 750 mmHg 30%
    17:00 +34°C° 0 mm 7 m/S 750 mmHg 32%
    18:00 +30°C° 0 mm 6 m/S 750 mmHg 41%
    19:00 +28°C° 0 mm 5 m/S 750 mmHg 51%
    20:00 +25°C° 0 mm 4 m/S 751 mmHg 60%
    21:00 +25°C° 0 mm 3 m/S 751 mmHg 64%
    22:00 +24°C° 0 mm 3 m/S 751 mmHg 67%
    23:00 +24°C° 0 mm 3 m/S 751 mmHg 71%

    20 August, Montag

    Zeit Temperatur Niederschläge Wind Luftdruck Luftfeuchtigkeit
    00:00 +22°C° 0,1 mm 3 m/S 750 mmHg 70%
    01:00 +22°C° 0,1 mm 3 m/S 750 mmHg 70%
    02:00 +22°C° 0,1 mm 3 m/S 750 mmHg 69%
    03:00 +22°C° 0 mm 4 m/S 750 mmHg 68%
    04:00 +21°C° 0 mm 4 m/S 750 mmHg 68%
    05:00 +21°C° 0 mm 4 m/S 750 mmHg 67%
    06:00 +23°C° 0 mm 4 m/S 751 mmHg 61%
    07:00 +26°C° 0 mm 5 m/S 751 mmHg 55%
    08:00 +28°C° 0 mm 5 m/S 751 mmHg 48%
    09:00 +30°C° 0 mm 5 m/S 751 mmHg 43%
    10:00 +32°C° 0 mm 5 m/S 751 mmHg 38%
    11:00 +34°C° 0 mm 6 m/S 751 mmHg 34%
    12:00 +34°C° 0 mm 6 m/S 751 mmHg 34%
    13:00 +34°C° 0 mm 6 m/S 751 mmHg 34%
    14:00 +34°C° 0 mm 6 m/S 751 mmHg 34%
    15:00 +34°C° 0 mm 6 m/S 751 mmHg 35%
    16:00 +33°C° 0 mm 6 m/S 751 mmHg 37%
    17:00 +32°C° 0 mm 6 m/S 751 mmHg 38%
    18:00 +29°C° 0 mm 5 m/S 751 mmHg 44%
    19:00 +27°C° 0 mm 4 m/S 751 mmHg 51%
    20:00 +25°C° 0 mm 4 m/S 751 mmHg 57%
    21:00 +24°C° 0 mm 3 m/S 751 mmHg 60%
    22:00 +22°C° 0 mm 3 m/S 751 mmHg 64%
    23:00 +22°C° 0 mm 3 m/S 751 mmHg 67%

    21 August, Dienstag

    Zeit Temperatur Niederschläge Wind Luftdruck Luftfeuchtigkeit
    00:00 +21°C° 0 mm 3 m/S 751 mmHg 67%
    01:00 +21°C° 0 mm 3 m/S 751 mmHg 67%
    02:00 +20°C° 0 mm 3 m/S 751 mmHg 67%
    03:00 +20°C° 0 mm 3 m/S 751 mmHg 67%
    04:00 +20°C° 0 mm 3 m/S 751 mmHg 68%
    05:00 +19°C° 0 mm 4 m/S 751 mmHg 69%
    06:00 +21°C° 0 mm 4 m/S 752 mmHg 61%
    07:00 +23°C° 0 mm 4 m/S 752 mmHg 53%
    08:00 +26°C° 0 mm 4 m/S 752 mmHg 46%
    09:00 +28°C° 0 mm 5 m/S 752 mmHg 39%
    10:00 +30°C° 0 mm 5 m/S 752 mmHg 33%
    11:00 +33°C° 0 mm 6 m/S 752 mmHg 26%
    12:00 +33°C° 0 mm 6 m/S 752 mmHg 25%
    13:00 +34°C° 0 mm 6 m/S 752 mmHg 24%
    14:00 +34°C° 0 mm 5 m/S 752 mmHg 24%
    15:00 +33°C° 0 mm 5 m/S 752 mmHg 25%
    16:00 +33°C° 0 mm 5 m/S 751 mmHg 27%
    17:00 +32°C° 0 mm 5 m/S 751 mmHg 29%
    18:00 +28°C° 0 mm 5 m/S 751 mmHg 38%
    19:00 +26°C° 0 mm 4 m/S 752 mmHg 47%
    20:00 +22°C° 0 mm 4 m/S 752 mmHg 56%
    21:00 +22°C° 0 mm 3 m/S 752 mmHg 60%
    22:00 +21°C° 0 mm 3 m/S 752 mmHg 65%
    23:00 +20°C° 0 mm 3 m/S 752 mmHg 70%
    Mehr zeigen